Regional Weather Roundup
Issued by NWS Little Rock, AR

Home | Current Version | Previous Version | Graphics & Text | Print | Product List | Glossary On
Versions: 1 2 3 4 5 6 7 8 9 10 11 12 13 14 15 16 17 18 19 20 21 22 23 24 25 26 27 28 29 30 31 32 33 34 35 36 37 38 39 40 41 42 43 44 45 46 47 48 49 50
000
ASUS44 KLZK 212205
RWRLZK

WEATHER ROUNDUP FOR ARKANSAS
NATIONAL WEATHER SERVICE LITTLE ROCK AR
500 PM CDT TUE OCT 21 2014

NOTE: "FAIR" INDICATES FEW OR NO CLOUDS BELOW 12,000 FEET WITH NO
SIGNIFICANT WEATHER AND/OR OBSTRUCTIONS TO VISIBILITY.

ARZ001-003-010-029-212300-
NORTHWEST ARKANSAS

CITY           SKY/WX    TMP DP  RH WIND       PRES   REMARKS
FAYETTEVILLE   SUNNY     75  53  46 CALM      30.07F
FORT SMITH     SUNNY     79  58  48 VRB6      30.03F
HARRISON       SUNNY     73  47  39 NW7       30.08F
BENTONVILLE    SUNNY     75  54  46 NW6       30.09S
ROGERS         SUNNY     73  51  46 CALM      30.09S
SILOAM SPGS    SUNNY     75  52  43 NE5       30.07F
HIGHFILL       SUNNY     75  54  47 E3        30.07F
SPRINGDALE     SUNNY     75  52  43 W6        30.10S
$$

ARZ004-005-016-212300-
NORTH CENTRAL ARKANSAS

CITY           SKY/WX    TMP DP  RH WIND       PRES   REMARKS
BATESVILLE     SUNNY     75  46  35 CALM      30.05F
FLIPPIN        SUNNY     73  43  33 N6        30.08S
MTN HOME       SUNNY     73  46  38 CALM      30.07S
$$

ARZ040-041-212300-
WEST CENTRAL ARKANSAS

CITY           SKY/WX    TMP DP  RH WIND       PRES   REMARKS
MENA           SUNNY     79  59  50 CALM      30.05F
MOUNT IDA      SUNNY     77  60  55 CALM      30.03F
$$

ARZ009-017-025-026-028-212300-
NORTHEAST ARKANSAS

CITY           SKY/WX    TMP DP  RH WIND       PRES   REMARKS
CORNING        FAIR      73  48  40 NW6       30.06S
JONESBORO      SUNNY     74  46  36 N5        30.06S
NEWPORT        SUNNY     74  50  42 NE8       30.06F
WALNUT RIDGE   SUNNY     73  45  35 N6        30.05F
BLYTHEVILLE    SUNNY     76  46  34 N9        30.05S
$$

ARZ022-023-033-042-044-212300-
CENTRAL ARKANSAS

CITY           SKY/WX    TMP DP  RH WIND       PRES   REMARKS
LITTLE ROCK    SUNNY     79  48  33 W6        30.04S
N LITTLE ROCK  SUNNY     75  54  47 NW6       30.04S
JACKSONVILLE   SUNNY     78  52  40 N6        30.05R
SEARCY         SUNNY     78  52  40 VRB5      30.05F
HOT SPRINGS    SUNNY     77  55  46 W5        30.04F
RUSSELLVILLE   SUNNY     79  51  37 VRB3      30.04F
$$

ARZ036-212300-
EAST ARKANSAS

CITY           SKY/WX    TMP DP  RH WIND       PRES   REMARKS
WEST MEMPHIS   SUNNY     75  47  36 N8        30.04S
$$

ARZ050-053-066-070-073-212300-
SOUTHWEST ARKANSAS

CITY           SKY/WX    TMP DP  RH WIND       PRES   REMARKS
ARKADELPHIA    FAIR      78  58  50 CALM      30.04S
CAMDEN         PTSUNNY   81  57  44 NE6       30.03S HAZE
TEXARKANA      SUNNY     80  60  50 NW3       30.03F
EL DORADO      SUNNY     78  58  49 N7        30.03F
DE QUEEN       SUNNY     81  62  52 CALM      30.00F
$$

ARZ056-057-069-212300-
SOUTHEAST ARKANSAS

CITY           SKY/WX    TMP DP  RH WIND       PRES   REMARKS
PINE BLUFF     MOSUNNY   78  54  43 NW9       30.03F
STUTTGART      SUNNY     75  48  38 N7        30.05S
MONTICELLO     SUNNY     79  55  43 N3        30.02F

$$





USA.gov is the U.S. government's official web portal to all federal, state and local government web resources and services.